Home > Weather > Poznan > Past weeks

Flag for Poland Weather for the Past 2 Weeks in Poznan, Poland

Now
52 °F

Light rain. Clear.


Feels Like: 49 °F
Forecast: 44 / 67 °F
Wind: 7 mph from North

Location: Poznan Airport

Current Time: May 4, 2016 at 2:21:12 AM

Latest Report: May 4, 2016 at 2:00 AM


Visibility: N/A

Pressure: 30.07 "Hg

Humidity: 94%

Dew Point: 50 °F

Location of PoznanLocation

Historic Weather in Poznan — Graph

°F

Poznan Temperature Yesterday

Maximum temperature yesterday: 70 °F (at 4:00 PM)
Minimum temperature yesterday: 45 °F (at 5:00 AM)
Average temperature yesterday: 56 °F

High & Low Weather Summary for the Past Weeks

 TemperatureHumidityPressure
High70 °F (May 3, 4:00 PM)94% (May 3, 11:00 PM)30.30 "Hg (May 3, 11:00 PM)
Low30 °F (Apr 25, 2:30 AM)24% (Apr 30, 4:30 PM)29.47 "Hg (Apr 26, 3:30 PM)
Average47 °F64%29.98 "Hg
* Reported Apr 19 1:00 AM — May 4 1:00 AM, Poznan, Weather by CustomWeather, © 2016

Note: Actual official high and low records may vary slightly from our data, if they occured in-between our weather recording intervals... More about our weather records

Advertising

Poznan Weather History for the Previous 24 Hours

Scroll right to see more
 ConditionsComfort  
Time TempWeatherWind HumidityBarometerVisibility
1:00 AM
Wed, May 4
52 °FClear.7 mph94%30.07 "Hg10 mi
12:30 AM52 °FClear.7 mph94%30.07 "Hg10 mi
12:00 AM52 °FLight rain. Clear.7 mph94%30.07 "HgN/A
11:30 PM
Tue, May 3
52 °FLight rain. Clear.3 mph94%30.04 "HgN/A
11:00 PM52 °FLight rain. Clear.8 mph94%30.04 "HgN/A
10:30 PM54 °FSprinkles. Passing clouds.3 mph88%30.04 "HgN/A
10:00 PM54 °FSprinkles. Passing clouds.5 mph88%30.04 "HgN/A
9:30 PM55 °FSprinkles. Passing clouds.5 mph82%30.04 "HgN/A
9:00 PM55 °FSprinkles. Scattered clouds.3 mph77%30.01 "HgN/A
8:30 PM55 °FScattered clouds.13 mph82%30.01 "HgN/A
8:00 PM57 °FScattered clouds.3 mph72%29.98 "HgN/A
7:30 PM55 °FSprinkles. Partly sunny.7 mph82%29.98 "HgN/A
7:00 PM55 °FThunderstorms. Partly sunny.9 mph88%30.01 "HgN/A
6:30 PM55 °FSprinkles. Partly sunny.5 mph88%29.98 "HgN/A
6:00 PM55 °FSprinkles. Partly sunny.13 mph88%29.98 "HgN/A
5:30 PM57 °FSprinkles. Partly sunny.17 mph82%29.98 "HgN/A
5:00 PM64 °FThunderstorms. Partly sunny.6 mph52%29.95 "HgN/A
4:30 PM68 °FThunderstorms. Partly sunny.9 mph40%29.95 "HgN/A
4:00 PM70 °FThunderstorms. Partly sunny.9 mph38%29.95 "HgN/A
3:30 PM68 °FScattered clouds.7 mph40%29.95 "HgN/A
3:00 PM68 °FScattered clouds.6 mph43%29.95 "HgN/A
2:30 PM68 °FScattered clouds.2 mph40%29.98 "HgN/A
1:30 PM66 °FSunny.2 mph40%29.98 "Hg10 mi
1:00 PM66 °FPassing clouds.3 mph43%29.98 "HgN/A
12:00 PM64 °FPassing clouds.2 mph46%30.01 "HgN/A
11:30 AM64 °FPassing clouds.3 mph46%30.01 "HgN/A
11:00 AM63 °FSunny.3 mph56%30.01 "Hg10 mi
10:30 AM61 °FSunny.2 mph63%30.04 "Hg10 mi
10:00 AM59 °FSunny.2 mph63%30.04 "Hg10 mi
9:30 AM57 °FSunny.2 mph63%30.04 "Hg10 mi
9:00 AM55 °FPassing clouds.3 mph67%30.04 "HgN/A
8:30 AM54 °FSunny.2 mph67%30.04 "Hg10 mi
8:00 AM50 °FPassing clouds.5 mph76%30.04 "HgN/A
7:30 AM48 °FPassing clouds.3 mph76%30.04 "HgN/A
7:00 AM46 °FSunny.2 mph82%30.04 "Hg10 mi
6:30 AM45 °FSunny.3 mph87%30.04 "Hg10 mi
6:00 AM45 °FClear.3 mph81%30.07 "Hg10 mi
5:00 AM45 °FPassing clouds.3 mph87%30.07 "HgN/A
4:30 AM46 °FClear.1 mph82%30.07 "Hg10 mi
3:30 AM46 °FClear.2 mph82%30.07 "Hg10 mi
3:00 AM46 °FClear.5 mph82%30.07 "Hg10 mi
2:30 AM50 °FPassing clouds.5 mph71%30.09 "HgN/A
2:00 AM52 °FClear.8 mph72%30.09 "Hg10 mi
Weather by CustomWeather, © 2016

See weather overviewHow to use our weather pages